Regional Weather Roundup
Issued by NWS

Home | Current Version | Previous Version | Text Only | Print | Product List | Glossary On
Versions: 1 2 3 4 5 6 7 8 9 10 11 12 13 14 15 16 17 18 19 20 21 22 23 24 25 26 27 28 29 30 31 32 33 34 35 36 37 38 39 40 41 42 43 44 45 46 47 48 49 50
000
ASUS45 KABQ 162210
RWRNM
NEW MEXICO REGIONAL WEATHER ROUNDUP
NATIONAL WEATHER SERVICE ALBUQUERQUE NM
400 PM MDT MON OCT 16 2017

NOTE: "FAIR" MEANS FEW OR NO CLOUDS BELOW 12,000 FEET AGL WITH NO
       SIGNIFICANT WEATHER OR OBSTRUCTIONS TO VISION.

      THIS PRODUCT IS RELEASED AS TWO VERSIONS.  ONE VERSION NEAR
      THE TOP OF THE HOUR CONTAINING PRELIMINARY DATA FROM ALBUQUERQUE
      AND OTHER STATIONS.  A FINAL VERSION WITH ADDITIONAL DATA IS
      ISSUED ABOUT 10 MINUTES AFTER THE HOUR.

NMZ501-503-504-510>518-162300-
NORTHWEST PLATEAU/NORTHCENTRAL MOUNTAINS

CITY           SKY/WX    TMP DP  RH WIND       PRES   REMARKS
FARMINGTON     FAIR      72  10   9 CALM      30.34F
LOS ALAMOS     FAIR      65  18  16 S7        30.44F
SANTA FE       FAIR      68  22  17 SW9       30.39F
TAOS           FAIR      70  15  12 SW12      30.43F
ANGEL FIRE     FAIR      64   9  11 W14G20    30.48S

$$
NMZ402-403-502-505>509-162300-
WESTCENTRAL MOUNTAINS/SOUTHWEST MOUNTAINS

CITY           SKY/WX    TMP DP  RH WIND       PRES   REMARKS
GALLUP         FAIR      75  14  10 VRB3      30.37F
GRANTS         FAIR      73  11   9 CALM      30.40S
SILVER CITY    FAIR      73  43  33 SE9G17    30.36F

$$
NMZ407-409-411-412-162300-
SOUTHERN DESERTS

CITY           SKY/WX    TMP DP  RH WIND       PRES   REMARKS
DEMING         FAIR      76  41  28 E7        30.30F
LAS CRUCES     FAIR      76  37  25 SE7       30.33F
HOLLOMAN AFB   FAIR      75  31  20 CALM      30.33F
ALAMOGORDO     FAIR      73  32  21 CALM      30.33F
T OR C         FAIR      75  36  24 SW9       30.32F

$$
NMZ519>523-162300-
CENTRAL VALLEYS/CENTRAL HIGHLANDS

CITY           SKY/WX    TMP DP  RH WIND       PRES   REMARKS
ALBUQUERQUE    FAIR      70  22  16 SW6       30.36F
MORIARTY ARPT  FAIR      75  19  12 W7        30.39S
CLINES CORNERS FAIR      70  15  12 W14G23    30.42S
BELEN          FAIR      71  22  16 CALM      30.36F
SOCORRO        FAIR      74  28  18 SE10G16   30.34S

$$
NMZ524>526-539-540-162300-
SOUTHCENTRAL MOUNTAINS

CITY           SKY/WX    TMP DP  RH WIND       PRES   REMARKS
RUIDOSO        FAIR      68  27  21 N10       30.44S

$$
NMZ527>531-162300-
NORTHEAST HIGHLANDS/NORTHEAST PLAINS

CITY           SKY/WX    TMP DP  RH WIND       PRES   REMARKS
LAS VEGAS      FAIR      73  16  11 S15       30.36F
RATON          FAIR      74  26  16 SW9       30.30F
CLAYTON        FAIR      70  33  25 S17       30.25F

$$
NMZ532>537-162300-
EASTCENTRAL PLAINS

CITY           SKY/WX    TMP DP  RH WIND       PRES   REMARKS
SANTA ROSA     FAIR      78  22  12 S10       30.27S
TUCUMCARI      FAIR      77  36  22 SW17      30.23F
CANNON AFB     FAIR      71  33  25 SW13      30.31F
CLOVIS AIRPORT FAIR      70  36  28 SW12      30.31F

$$
NMZ028-029-538-162300-
SOUTHEAST PLAINS

CITY           SKY/WX    TMP DP  RH WIND       PRES   REMARKS
ROSWELL        FAIR      73  35  25 S13       30.30F
ARTESIA        FAIR      72  34  25 S14       30.31F
CARLSBAD       FAIR      71  34  25 S13       30.30F
HOBBS          SUNNY     70  27  19 S9        30.33F


$$




USA.gov is the U.S. government's official web portal to all federal, state and local government web resources and services.